Orbital Elements at Epoch 2459200.5 (2020-Dec-17.0) TDB
Reference: JPL 20 (heliocentric ecliptic J2000)
Element | Value | Uncertainty (1-sigma) | Units |
e | .2252339896366004 | 3.9077e-08 | |
a | 2.209606417544548 | 8.7558e-09 | au |
q | 1.711927948594353 | 8.3429e-08 | au |
i | 4.826723248288162 | 4.6956e-06 | deg |
node | 342.0270522444949 | 5.0923e-05 | deg |
peri | 242.9461968563563 | 5.2282e-05 | deg |
M | 312.8885345808127 | 1.2735e-05 | deg |
tp | 2459357.498290419182 (2021-May-22.99829042) | 4.2855e-05 | TDB |
period | 1199.694894820371 3.28 | 7.1309e-06 1.952e-08 | d yr |
n | .3000762956934167 | 1.7836e-09 | deg/d |
Q | 2.707284886494743 | 1.0728e-08 | au |
|
| | Orbit Determination Parameters
Additional Information
|